Flag for Cabo Verde Weather past 2 weeks in Praia, Cabo Verde

Now
64 °F

Scattered clouds.


Feels Like: 64 °F
Forecast: 67 / 78 °F
Wind: 16 mph from Northeast

Location: Sal

Current Time: Mar 27, 2015 at 7:00:09 AM

Latest Report: Mar 27, 2015 at 6:00 AM


Visibility: N/A

Pressure: 30.04 "Hg

Humidity: 73%

Dew point: 55 °F

Location of PraiaLocation

Historic Weather in Praia — Graph

°F

Praia temperature yesterday

Maximum temperature yesterday: 75 °F (at 2:00 PM)
Minimum temperature yesterday: 64 °F (at 12:00 AM)
Average temperature yesterday: 68 °F

Past Weeks' High & Low Weather Summary

 TemperatureHumidityPressure
High79 °F (Mar 12, 1:00 PM)88% (Mar 15, 3:00 AM)30.12 "Hg (Mar 15, 3:00 AM)
Low63 °F (Mar 16, 3:00 AM)28% (Mar 24, 8:00 AM)29.86 "Hg (Mar 13, 2:00 PM)
Average69 °F66%29.99 "Hg
* Reported Mar 12 6:00 AM — Mar 27 6:00 AM, Praia, Weather by CustomWeather, © 2015

Note: Actual official high and low records may vary slightly from our data, if they occured in-between our weather recording intervals... More about our weather records

Advertising

Praia weather history for previous 24 hours

 ConditionsComfort  
Time TempWeatherWind HumidityBarometerVisibility
6:00 AM
Fri, Mar 27
64 °FScattered clouds.16 mph73%30.04 "HgN/A
5:00 AM64 °FScattered clouds.18 mph73%30.04 "HgN/A
4:00 AM64 °FPassing clouds.18 mph73%30.01 "HgN/A
3:00 AM64 °FPassing clouds.16 mph73%30.04 "HgN/A
2:00 AM64 °FPassing clouds.17 mph78%30.04 "HgN/A
11:00 PM
Thu, Mar 26
66 °FPassing clouds.14 mph78%30.07 "HgN/A
9:00 PM66 °FPartly cloudy.13 mph78%30.07 "HgN/A
8:00 PM68 °FPartly cloudy.14 mph73%30.07 "HgN/A
7:00 PM68 °FPartly cloudy.16 mph73%30.04 "HgN/A
6:00 PM70 °FPassing clouds.20 mph69%30.01 "HgN/A
5:00 PM72 °FPassing clouds.20 mph65%30.01 "HgN/A
4:00 PM73 °FPartly sunny.20 mph61%30.01 "HgN/A
3:00 PM73 °FPartly sunny.21 mph61%30.01 "HgN/A
2:00 PM75 °FPartly sunny.20 mph57%30.04 "HgN/A
1:00 PM73 °FPartly sunny.18 mph61%30.04 "HgN/A
12:00 PM73 °FPartly sunny.18 mph57%30.07 "HgN/A
11:00 AM73 °FBroken clouds.17 mph57%30.07 "HgN/A
10:00 AM70 °FPartly sunny.20 mph64%30.07 "HgN/A
9:00 AM68 °FScattered clouds.18 mph64%30.07 "HgN/A
8:00 AM66 °FBroken clouds.17 mph68%30.04 "HgN/A
7:00 AM64 °FBroken clouds.13 mph73%30.04 "HgN/A
Weather by CustomWeather, © 2015

See weather overviewHow to use our weather pages